Satellite-Ground Cal/Val Site Overpasses Predictions

Prediction of Satellite NPP Overpassing Cal/Val Site: Antarctic Dome C

Ground Cal/Val Site Location: Latitude: -75.10, Longitude: 123.35; Satellite-Ground Site NADIR distance within 100 km.

Table of predicted overpasses for the next 14.0 days since TLE Epoch: 11/26/2023
Interval Starting Time Ending Time Minimum Distance Time Minimum Distance (km)
1 11/27/2023 07:32:04 11/27/2023 07:32:34 11/27/2023 07:32:19 1.38
2 11/30/2023 14:55:30 11/30/2023 14:55:59 11/30/2023 14:55:45 21.03
3 12/01/2023 14:36:47 12/01/2023 14:37:01 12/01/2023 14:36:54 86.22
4 12/02/2023 07:38:19 12/02/2023 07:38:46 12/02/2023 07:38:33 37.15
5 12/03/2023 07:19:32 12/03/2023 07:19:52 12/03/2023 07:19:42 72.91
6 12/05/2023 15:01:45 12/05/2023 15:02:09 12/05/2023 15:01:57 57.67
7 12/06/2023 14:42:54 12/06/2023 14:43:19 12/06/2023 14:43:07 51.53
8 12/07/2023 07:44:34 12/07/2023 07:44:54 12/07/2023 07:44:44 72.14
